Weather reports worldwide

Advertisment
Shap, United Kingdom (3225): temperature & dewpoint: 16.07.2019 03:00:00 - 22.07.2019 03:00:00 (BST)Shap, United Kingdom (3225): temperature -20cm & temperature -100cm: 16.07.2019 03:00:00 - 22.07.2019 03:00:00 (BST)Shap, United Kingdom (3225): wind speed & gusts: 16.07.2019 03:00:00 - 22.07.2019 03:00:00 (BST)Shap, United Kingdom (3225): wind direction: 16.07.2019 03:00:00 - 22.07.2019 03:00:00 (BST)Shap, United Kingdom (3225): reduced air pressure: 16.07.2019 03:00:00 - 22.07.2019 03:00:00 (BST)Shap, United Kingdom (3225): visibility: 16.07.2019 03:00:00 - 22.07.2019 03:00:00 (BST)Shap, United Kingdom (3225): sunshine duration: 16.07.2019 03:00:00 - 22.07.2019 03:00:00 (BST)Shap, United Kingdom (3225): precipitation: 16.07.2019 03:00:00 - 22.07.2019 03:00:00 (BST)
Date & Time tt [°C] td [°C] tt -20cm [°C] tt -100cm [°C] ff [km/h] ff [kn] fx [km/h] fx [kn] dd ppp [hPa] vv [km] sd [min] rr [mm]
22.07.2019 03:00:00 17,0 16,2 - - 44 24 70 38 SW 1012,0 9 0 -
22.07.2019 02:00:00 17,0 16,2 - - 41 22 65 35 SW 1011,6 6 0 3,4
22.07.2019 01:00:00 16,0 15,3 - - 35 19 52 28 SSW 1012,0 1,0 - 6,8
22.07.2019 00:00:00 14,7 14,1 - - 39 21 57 31 SSW 1012,4 1,6 0 6,2
21.07.2019 23:00:00 14,5 13,7 - - 44 24 63 34 S 1013,1 2,1 0 5,2
21.07.2019 22:00:00 15,0 14,0 - - 37 20 54 29 SSW 1013,5 3,2 0 4,4
21.07.2019 21:00:00 15,2 13,9 - - 37 20 52 28 SSW 1014,5 2,9 0 4,8
21.07.2019 20:00:00 15,6 13,8 - - 35 19 50 27 SSW 1015,0 4,4 0 0,2
21.07.2019 19:00:00 16,6 13,1 - - 37 20 55 30 SSW 1015,4 70 0 0,0
21.07.2019 18:00:00 16,5 13,0 - - 35 19 52 28 SSW 1015,4 65 0 0,0
21.07.2019 17:00:00 16,7 13,1 - - 24 13 - - SSW 1016,5 75 0 0,0
21.07.2019 16:00:00 15,9 13,0 - - 26 14 - - SSW 1016,9 50 0 0,0
21.07.2019 15:00:00 15,6 13,0 - - 22 12 - - SSW 1017,1 60 0 0,0
21.07.2019 14:00:00 15,6 12,7 - - 26 14 - - SSW 1017,1 50 0 0,0
21.07.2019 13:00:00 16,6 11,7 - - 22 12 - - SSW 1016,9 75 0 0,0
21.07.2019 12:00:00 16,0 11,7 - - 22 12 - - SW 1017,0 75 0 0,0
21.07.2019 11:00:00 16,0 13,0 - - 22 12 - - SSW 1016,8 65 0 0,0
21.07.2019 10:00:00 15,7 12,5 16,2 14,4 22 12 - - SSW 1016,3 75 6 0,0
21.07.2019 09:00:00 16,2 12,9 - - 16 9 - - SSW 1015,7 75 6 0,0
21.07.2019 08:00:00 14,0 12,1 - - 9 5 - - SSE 1015,5 35 12 0,0
21.07.2019 07:00:00 13,1 11,7 - - 9 5 - - S 1015,3 35 0 0,0
21.07.2019 06:00:00 13,1 11,7 - - 9 5 - - SSW 1015,0 35 0 0,0
21.07.2019 05:00:00 12,7 10,9 - - 11 6 - - SW 1014,8 60 0 0,0
21.07.2019 04:00:00 12,9 10,3 - - 13 7 - - SW 1014,2 70 0 0,0
21.07.2019 03:00:00 13,1 9,9 - - 13 7 - - WSW 1014,0 75 0 0,0
21.07.2019 02:00:00 12,8 9,9 - - 9 5 - - WSW 1014,0 75 0 0,0
21.07.2019 01:00:00 11,6 9,5 - - 9 5 - - SW 1013,8 75 - 0,0
21.07.2019 00:00:00 10,1 8,0 - - 8 4 - - SSW 1013,6 70 0 0,0
20.07.2019 23:00:00 12,9 8,6 - - 13 7 - - W 1012,7 75 0 0,0
20.07.2019 22:00:00 13,1 8,6 - - 5 3 - - W 1012,0 75 0 0,0
20.07.2019 21:00:00 14,9 8,1 - - 5 3 - - WSW 1010,7 75 24 0,0
20.07.2019 20:00:00 15,8 8,0 - - 11 6 - - WNW 1009,8 75 30 0,0
20.07.2019 19:00:00 16,6 8,9 - - 18 10 - - NW 1008,8 75 36 0,0
20.07.2019 18:00:00 17,1 10,3 - - 11 6 - - WNW 1007,9 75 36 0,0
20.07.2019 17:00:00 17,8 12,0 - - 15 8 - - WNW 1006,7 75 42 0,0
20.07.2019 16:00:00 17,8 12,1 - - 16 9 - - WNW 1005,5 70 24 0,0
20.07.2019 15:00:00 17,7 13,7 - - 11 6 - - WNW 1004,4 75 6 0,0
20.07.2019 14:00:00 16,9 13,2 - - 13 7 - - WNW 1003,4 75 0 0,0
20.07.2019 13:00:00 18,8 14,2 - - 18 10 - - W 1001,8 75 18 0,2
20.07.2019 12:00:00 18,1 14,5 - - 8 4 - - NNW 1000,9 50 6 0,0
20.07.2019 11:00:00 16,3 14,0 - - 13 7 - - SW 1000,5 75 0 0,0
20.07.2019 10:00:00 15,2 13,8 16,0 14,4 16 9 - - SSW 1000,1 75 0 0,6
20.07.2019 09:00:00 14,7 13,4 - - 21 11 - - S 1000,1 14 0 0,0
20.07.2019 08:00:00 15,3 13,8 - - 21 11 - - S 999,9 30 0 0,0
20.07.2019 07:00:00 14,8 14,1 - - 16 9 - - S 1000,0 20 0 7,2
20.07.2019 06:00:00 14,5 13,9 - - 18 10 - - S 1000,1 16 0 1,8
20.07.2019 05:00:00 14,6 13,9 - - 24 13 48 26 S 1000,2 5 0 5,4
20.07.2019 04:00:00 15,0 14,1 - - 29 16 - - S 1000,3 12 0 4,2
20.07.2019 03:00:00 15,0 14,3 - - 24 13 - - S 1000,5 1,4 0 1,4
20.07.2019 02:00:00 15,2 14,5 - - 28 15 - - S 1001,1 18 0 1,6
20.07.2019 01:00:00 15,6 14,6 - - 18 10 46 25 SSW 1001,6 12 - 0,2
20.07.2019 00:00:00 15,7 14,2 - - 26 14 - - SSW 1001,9 35 0 1,8
19.07.2019 23:00:00 15,9 14,1 - - 28 15 46 25 SW 1002,6 11 0 0,0
19.07.2019 22:00:00 15,9 14,2 - - 29 16 50 27 SW 1002,8 7 0 1,2
19.07.2019 21:00:00 16,1 14,5 - - 35 19 52 28 SW 1002,8 5 0 0,4
19.07.2019 20:00:00 16,4 15,1 - - 28 15 48 26 SSW 1002,3 1,5 0 4,0
19.07.2019 19:00:00 17,1 16,2 - - 22 12 - - S 1002,2 25 0 0,4
19.07.2019 18:00:00 16,4 15,6 - - 15 8 - - S 1002,7 4,0 0 2,2
19.07.2019 17:00:00 15,7 14,9 - - 13 7 - - S 1003,6 3,6 0 1,2
19.07.2019 16:00:00 15,8 14,6 - - 16 9 - - S 1004,5 7 0 0,2
19.07.2019 15:00:00 15,6 13,4 - - 22 12 - - S 1005,1 75 0 0,0
19.07.2019 14:00:00 15,6 12,9 - - 22 12 - - S 1005,7 75 0 0,0
19.07.2019 13:00:00 15,0 12,1 - - 24 13 - - S 1006,5 60 0 0,0
19.07.2019 12:00:00 14,5 11,8 - - 22 12 - - S 1007,2 50 0 0,0
19.07.2019 11:00:00 14,8 11,5 - - 26 14 - - S 1007,4 35 0 0,0
19.07.2019 10:00:00 14,1 12,8 16,0 14,4 18 10 - - S 1007,9 18 0 0,0
19.07.2019 09:00:00 13,7 12,7 - - 18 10 - - S 1008,2 6 0 0,4
19.07.2019 08:00:00 14,0 12,7 - - 15 8 - - S 1008,5 18 0 0,0
19.07.2019 07:00:00 13,5 12,6 - - 15 8 - - S 1008,6 21 0 0,0
19.07.2019 06:00:00 13,3 12,1 - - 13 7 - - SSW 1008,5 29 0 0,0
19.07.2019 05:00:00 13,2 11,8 - - 15 8 - - SSW 1008,6 22 0 0,0
19.07.2019 04:00:00 13,3 11,9 - - 18 10 - - SW 1008,7 24 0 0,0
19.07.2019 03:00:00 13,3 11,8 - - 16 9 - - SW 1008,8 28 0 0,0
19.07.2019 02:00:00 12,9 11,5 - - 18 10 - - SSW 1009,2 28 0 0,0
19.07.2019 01:00:00 11,7 10,5 - - 8 4 - - E 1009,5 30 - 0,0
19.07.2019 00:00:00 11,8 10,7 - - 11 6 - - ESE 1009,5 35 0 0,0
18.07.2019 23:00:00 12,9 10,7 - - 15 8 - - SW 1009,5 50 0 0,0
18.07.2019 22:00:00 13,6 11,6 - - 9 5 - - SW 1009,3 40 0 0,0
18.07.2019 21:00:00 14,1 10,7 - - 18 10 - - WSW 1008,9 30 0 0,0
18.07.2019 20:00:00 14,6 10,9 - - 22 12 - - WSW 1008,3 30 54 0,0
18.07.2019 19:00:00 15,4 11,4 - - 21 11 - - WSW 1008,2 7 24 0,0
18.07.2019 18:00:00 15,7 10,0 - - 16 9 - - WSW 1008,0 30 42 0,0
18.07.2019 17:00:00 17,3 10,7 - - 22 12 - - SW 1007,8 6 54 0,0
18.07.2019 16:00:00 17,2 10,5 - - 22 12 - - WSW 1007,4 4,4 54 0,0
18.07.2019 15:00:00 16,0 10,6 - - 22 12 - - WSW 1007,3 8 6 0,0
18.07.2019 14:00:00 15,8 11,2 - - 24 13 - - SW 1007,4 6 6 0,0
18.07.2019 13:00:00 15,5 10,5 - - 16 9 - - WSW 1007,3 22 0 0,0
18.07.2019 12:00:00 14,9 10,3 - - 21 11 - - WSW 1007,1 10 0 0,0
18.07.2019 11:00:00 14,2 10,8 - - 15 8 - - WSW 1007,0 30 0 0,0
18.07.2019 10:00:00 14,1 11,2 16,2 14,4 15 8 - - SW 1007,1 29 0 0,0
18.07.2019 09:00:00 14,3 10,9 - - 22 12 - - WSW 1006,7 22 48 0,0
18.07.2019 08:00:00 12,9 11,0 - - 21 11 - - SW 1006,8 18 24 0,0
18.07.2019 07:00:00 11,8 9,7 - - 11 6 - - SW 1007,0 65 12 0,0
18.07.2019 06:00:00 10,7 8,9 - - 9 5 - - WSW 1006,8 65 0 0,0
18.07.2019 05:00:00 9,9 7,9 - - 8 4 - - W 1006,7 75 0 0,0
18.07.2019 04:00:00 12,4 9,7 - - 8 4 - - WNW 1006,1 75 0 0,0
18.07.2019 03:00:00 13,2 11,9 - - 8 4 - - NW 1006,0 75 0 0,0
18.07.2019 02:00:00 14,2 13,4 - - 9 5 - - WSW 1006,1 75 0 1,2
18.07.2019 01:00:00 13,9 13,4 - - 18 10 - - S 1006,4 1,4 - 2,0
18.07.2019 00:00:00 13,9 13,5 - - 18 10 - - S 1006,7 3,8 0 1,6
17.07.2019 23:00:00 13,8 13,3 - - 21 11 - - S 1007,5 2,0 0 1,8
17.07.2019 22:00:00 13,8 13,2 - - 28 15 - - SSW 1008,1 2,0 0 1,4
17.07.2019 21:00:00 13,6 12,8 - - 34 18 48 26 SSW 1008,4 1,1 0 1,6
17.07.2019 20:00:00 13,7 12,9 - - 26 14 48 26 SSW 1008,5 1,7 0 0,2
17.07.2019 19:00:00 14,0 12,8 - - 22 12 - - SSW 1009,2 9 0 0,4
17.07.2019 18:00:00 14,3 12,4 - - 18 10 46 25 SSW 1009,9 14 0 0,0
17.07.2019 17:00:00 14,4 12,4 - - 26 14 - - SW 1010,6 8 0 0,0
17.07.2019 16:00:00 15,4 12,5 - - 22 12 - - SW 1010,8 35 0 0,0
17.07.2019 15:00:00 16,0 12,0 - - 24 13 - - SW 1011,0 45 0 0,0
17.07.2019 14:00:00 16,7 11,5 - - 31 17 - - SW 1011,2 50 0 0,0
17.07.2019 13:00:00 16,7 12,9 - - 31 17 - - SSW 1011,8 40 0 0,0
17.07.2019 12:00:00 16,3 12,4 - - 24 13 - - SSW 1012,1 35 0 0,0
17.07.2019 11:00:00 17,0 13,1 - - 24 13 - - SSW 1012,3 40 0 0,0
17.07.2019 10:00:00 16,3 13,2 16,7 14,2 18 10 - - SSW 1013,1 29 0 0,0
17.07.2019 09:00:00 15,1 13,1 - - 11 6 - - S 1013,5 21 0 0,0
17.07.2019 08:00:00 14,6 13,1 - - 9 5 - - S 1013,7 20 0 0,0
17.07.2019 07:00:00 13,6 11,7 - - 11 6 - - SE 1014,0 25 0 0,0
17.07.2019 06:00:00 12,9 11,4 - - 11 6 - - SSE 1014,4 21 0 0,0
17.07.2019 05:00:00 12,5 11,1 - - 13 7 - - SSE 1015,0 20 0 0,0
17.07.2019 04:00:00 12,2 10,8 - - 8 4 - - ESE 1015,3 26 0 0,0
17.07.2019 03:00:00 12,8 11,1 - - 16 9 - - ESE 1015,5 29 0 0,0
17.07.2019 02:00:00 12,5 10,6 - - 11 6 - - SE 1016,4 30 0 0,0
17.07.2019 01:00:00 13,3 11,6 - - 13 7 - - SE 1016,5 30 - 0,0
17.07.2019 00:00:00 14,2 12,2 - - 15 8 - - S 1017,0 26 0 0,0
16.07.2019 23:00:00 14,9 12,2 - - 13 7 - - SW 1017,1 35 0 0,0
16.07.2019 22:00:00 15,9 12,5 - - 16 9 - - WSW 1016,8 40 0 0,0
16.07.2019 21:00:00 17,0 13,2 - - 15 8 - - SW 1016,8 40 6 0,0
16.07.2019 20:00:00 18,1 13,9 - - 11 6 - - SW 1016,9 40 12 0,0
16.07.2019 19:00:00 18,8 13,7 - - 11 6 - - SW 1016,9 50 6 0,0
16.07.2019 18:00:00 18,9 12,9 - - 15 8 - - SW 1017,0 45 6 0,0
16.07.2019 17:00:00 20,8 12,3 - - 21 11 - - WSW 1016,8 75 54 0,0
16.07.2019 16:00:00 20,7 11,2 - - 22 12 - - SW 1017,2 75 60 0,0
16.07.2019 15:00:00 20,4 11,9 - - 24 13 - - SW 1017,3 75 54 0,0
16.07.2019 14:00:00 18,8 12,2 - - 24 13 - - SW 1017,9 55 0 0,0
16.07.2019 13:00:00 19,1 13,0 - - 18 10 - - WSW 1018,1 45 24 0,0
16.07.2019 12:00:00 17,6 13,2 - - 18 10 - - SW 1018,6 35 30 0,0
16.07.2019 11:00:00 18,7 14,0 - - 18 10 - - SW 1018,5 35 36 0,0
16.07.2019 10:00:00 18,5 13,9 16,7 14,2 15 8 - - SW 1018,5 21 54 0,0
16.07.2019 09:00:00 16,7 13,9 - - 13 7 - - SSW 1019,0 15 18 0,0
16.07.2019 08:00:00 15,6 13,8 - - 11 6 - - S 1019,3 12 6 0,0
16.07.2019 07:00:00 13,9 12,5 - - 9 5 - - SSE 1019,5 10 0 0,0
16.07.2019 06:00:00 13,8 12,4 - - 13 7 - - S 1019,4 15 0 0,0
16.07.2019 05:00:00 13,4 11,9 - - 15 8 - - SSE 1019,3 15 0 0,0
16.07.2019 04:00:00 11,7 10,7 - - 13 7 - - ESE 1019,6 15 0 0,0
16.07.2019 03:00:00 12,2 10,8 - - 11 6 - - SSE 1020,0 27 0 0,0

tt = temperature
td = dewpoint
tt -20cm = temperature -20cm
tt -100cm = temperature -100cm
ff = wind speed
fx = gusts
dd = wind direction
ppp = reduced air pressure
vv = visibility
sd = sunshine duration
rr = precipitation

Next stations